Погода в Лосе-Льяносе-де-Аридане

Испания     28°39′23″N   17°54′46″W
темп.,
°C
ветер,
м/с
пор.,
м/с
влажн.,
%
обл.,
%
осадки,
мм/ч
давл.,
гПа
погр.,
м
14 апреля, ср
ср1401:00+19ссз238612 0.0 1020339
04:00+19ссз448612 0.1 1019407
07:00+18с4486100 0.3 1018345
10:00+19ссз5583100 0.2 1019568
13:00+19ссз66787 0.2 1020626
16:00+19ссз87789 0.1 1018702
19:00+19ссз888019 0.1 1018747
22:00+19с98787 0.1 1019731
15 апреля, чт
чт1501:00+19с88798 0.1 1019666
04:00+18с778013 0.0 1017645
07:00+18ссв7780100 0.1 1017592
10:00+19ссв6677100 0.0 1018653
13:00+19с6676100 0.1 1019651
16:00+19с557812 0.2 1018596
19:00+19с677697 0.3 1018773
22:00+18ссв77755 0.0 1018618
16 апреля, пт
пт1601:00+19ссв777621 0.1 1018801
04:00+18ссв77757 0.1 1017680
07:00+18ссв77747 0.1 1017788
10:00+18ссв667312 0.0 1018786
13:00+19ссв667212 0.1 1018642
16:00+20св557224 0.1 1017805
19:00+19св567314 0.2 1017756
22:00+19св677111 0.0 1019777
17 апреля, сб
сб1701:00+19св677312 0.1 1019790
04:00+19св677310 0.0 1018687
07:00+19св677013 0.1 1018824
10:00+19всв78705 0.0 1019731
13:00+20всв56640 0.0 1019597
16:00+20св45640 0.0 1018640
19:00+20св67673 0.0 1018579
22:00+19св77725 0.0 1020464
18 апреля, вс
вс1801:00+19всв77735 0.0 1020506
04:00+19св76735 0.0 1019531
07:00+18всв77725 0.0 1019477
10:00+19св77661 0.0 1019509
13:00+20св66640 0.0 1020414
16:00+21св77660 0.0 1018545
19:00+20св76670 0.0 1019455
22:00+19всв88735 0.0 1020390